Little Rock, AR

11:33 PM CDT on May 26, 2017 (GMT -0500)
Adams

Weather History for KLIT - February, 2013

Change the Weather History Date:

Wednesday, February 27, 2013

  Actual Average Record
Temperature  
Mean Temperature 44 °F 48 °F  
Max Temperature 50 °F 59 °F 81 °F (1918)
Min Temperature 38 °F 38 °F 15 °F (1934)
Degree Days  
Heating Degree Days 21 17  
Month to date heating degree days 536 551  
Since 1 July heating degree days 2265 2497  
Cooling Degree Days 0 0  
Month to date cooling degree days 0 0  
Year to date cooling degree days 5 1  
Moisture  
Dew Point 31 °F    
Average Humidity 58    
Maximum Humidity 70    
Minimum Humidity 46    
Precipitation  
Precipitation T in 0.14 in 2.61 in (1880)
Month to date precipitation 4.75 3.51  
Year to date precipitation 9.56 7.06  
Snow  
Snow 0.00 in 0.10 in 2.20 in (1925)
Month to date snowfall T 1.3  
Since 1 July snowfall 10.6 3.1  
Snow Depth 0.00 in    
Sea Level Pressure  
Sea Level Pressure 29.99 in    
Wind  
Wind Speed 12 mph (WNW)    
Max Wind Speed 24 mph    
Max Gust Speed 30 mph    
Visibility 10 miles    
Events Rain    
T = Trace of Precipitation, MM = Missing Value Source: NWS Daily Summary

Daily Weather History Graph

Daily Weather History Graph

Search for Another Location

Airport or City:

Trip Planner

Search our weather history database for the weather conditions in past years. The results will help you decide how hot, cold, wet, or windy it might be!

Date:

Astronomy

Feb. 27, 2013 Rise Set
Actual Time 6:40 AM CST 6:03 PM CST
Civil Twilight 6:14 AM CST 6:28 PM CST
Nautical Twilight 5:45 AM CST 6:57 PM CST
Astronomical Twilight 5:16 AM CST 7:27 PM CST
Moon 8:16 PM CST 7:22 AM CST
Length of Visible Light 12h 13m
Length of Day
11h 23m
Waning Gibbous, 96% of the Moon is Illuminated
Feb 27
Waning Gibbous
Mar 4
Last Quarter
Mar 11
New
Mar 19
First Quarter
Mar 27
Full

Hourly Weather History & Observations

Time (CST) Temp. Windchill Dew Point Humidity Pressure Visibility Wind Dir Wind Speed Gust Speed Precip Events Conditions
12:53 AM 41.0 °F 34.7 °F 30.0 °F 65% 29.89 in 10.0 mi WNW 10.4 mph - N/A   Overcast
1:11 AM 41.0 °F 35.2 °F 30.2 °F 65% 29.89 in 10.0 mi WNW 9.2 mph 17.3 mph N/A   Overcast
1:53 AM 41.0 °F 34.7 °F 30.9 °F 67% 29.91 in 10.0 mi West 10.4 mph - N/A   Overcast
2:53 AM 39.9 °F 34.5 °F 30.0 °F 68% 29.90 in 10.0 mi WNW 8.1 mph - N/A   Overcast
3:53 AM 39.9 °F 35.1 °F 30.9 °F 70% 29.91 in 9.0 mi WNW 6.9 mph - N/A   Overcast
4:53 AM 39.0 °F 34.0 °F 30.9 °F 73% 29.93 in 10.0 mi WNW 6.9 mph - N/A   Overcast
5:53 AM 39.9 °F 35.1 °F 30.9 °F 70% 29.93 in 10.0 mi WNW 6.9 mph - N/A   Overcast
6:53 AM 39.9 °F 32.5 °F 30.9 °F 70% 29.96 in 10.0 mi WNW 12.7 mph - N/A   Overcast
7:53 AM 41.0 °F 33.9 °F 30.9 °F 67% 29.97 in 10.0 mi NW 12.7 mph - N/A   Overcast
8:53 AM 42.8 °F 36.2 °F 32.0 °F 66% 29.99 in 10.0 mi WNW 12.7 mph 18.4 mph N/A   Mostly Cloudy
9:53 AM 41.0 °F 34.3 °F 34.0 °F 76% 30.02 in 7.0 mi West 11.5 mph 18.4 mph 0.00 in Rain Light Rain
10:53 AM 43.0 °F 37.7 °F 37.0 °F 80% 30.02 in 7.0 mi West 9.2 mph - 0.00 in   Light Drizzle
11:53 AM 48.0 °F - 36.0 °F 63% 29.99 in 10.0 mi West 11.5 mph - 0.00 in   Mostly Cloudy
12:53 PM 50.0 °F - 36.0 °F 59% 29.99 in 10.0 mi NW 16.1 mph - N/A   Mostly Cloudy
1:53 PM 48.9 °F - 34.0 °F 56% 29.99 in 10.0 mi WNW 17.3 mph - N/A   Mostly Cloudy
2:53 PM 48.9 °F - 33.1 °F 54% 30.00 in 10.0 mi NW 16.1 mph 27.6 mph N/A   Scattered Clouds
3:53 PM 48.9 °F - 30.9 °F 50% 30.01 in 10.0 mi West 18.4 mph 27.6 mph N/A   Mostly Cloudy
4:53 PM 48.0 °F - 28.9 °F 48% 30.01 in 10.0 mi WNW 19.6 mph 29.9 mph N/A   Partly Cloudy
5:53 PM 46.9 °F - 28.9 °F 50% 30.02 in 10.0 mi West 12.7 mph - N/A   Scattered Clouds
6:53 PM 45.0 °F 38.5 °F 28.9 °F 53% 30.04 in 10.0 mi West 13.8 mph - N/A   Partly Cloudy
7:53 PM 44.1 °F 39.0 °F 28.9 °F 55% 30.05 in 10.0 mi WNW 9.2 mph - N/A   Clear
8:53 PM 41.0 °F 39.0 °F 28.9 °F 62% 30.05 in 10.0 mi West 3.5 mph - N/A   Clear
9:53 PM 39.0 °F 34.8 °F 30.0 °F 70% 30.05 in 10.0 mi WSW 5.8 mph - N/A   Clear
10:53 PM 41.0 °F 32.8 °F 30.0 °F 65% 30.07 in 10.0 mi WNW 16.1 mph 23.0 mph N/A   Clear
11:53 PM 39.0 °F 31.8 °F 26.1 °F 60% 30.08 in 10.0 mi NW 11.5 mph - N/A   Clear